EXS7Q EGNM-LTBJ

Flight info

Callsign EXS7Q
Flight time N/A
Altitude 33000
Route LAMI3W LAMIX L603 DOLAS NAVPI NOLRU DOJOH DODEN NEGIX DINKU BESNI LATLO OBEDI PODET IRDIV VABEK UL603 OLOTA RUGAS PEREN UN128 RIKSO RIKS1E
Aircraft B733/M-SDE2E3FHIRW/S

Departure

Time 2026-05-04 08:16
Airport Leeds Bradford Airport (EGNM)

Arrival

Time N/A
Airport Adnan Menderes International Airport (LTBJ)
Time Latitude Longitude Altitude Speed Heading
2026-05-04 07:50 53.86881 -1.65840 666 ft 0 kts
2026-05-04 08:06 53.86872 -1.65840 666 ft 2 kts
2026-05-04 08:06 53.86857 -1.65840 666 ft 2 kts
2026-05-04 08:06 53.86842 -1.65841 666 ft 2 kts
2026-05-04 08:08 53.86813 -1.65885 667 ft 0 kts 91°
2026-05-04 08:10 53.86763 -1.65758 666 ft 6 kts 168°
2026-05-04 08:11 53.86740 -1.65691 665 ft 8 kts 95°
2026-05-04 08:11 53.86733 -1.65440 658 ft 8 kts 121°
2026-05-04 08:11 53.86671 -1.65427 659 ft 9 kts 184°
2026-05-04 08:12 53.86592 -1.65436 661 ft 13 kts 183°
2026-05-04 08:12 53.86482 -1.65447 663 ft 17 kts 183°
2026-05-04 08:12 53.86363 -1.65457 666 ft 16 kts 182°
2026-05-04 08:12 53.86253 -1.65466 667 ft 15 kts 182°
2026-05-04 08:13 53.86158 -1.65397 666 ft 15 kts 139°
2026-05-04 08:13 53.86073 -1.65266 665 ft 16 kts 137°
2026-05-04 08:13 53.85985 -1.65132 663 ft 17 kts 137°
2026-05-04 08:13 53.85930 -1.65044 662 ft 6 kts 128°
2026-05-04 08:14 53.85912 -1.64965 662 ft 7 kts 104°
2026-05-04 08:14 53.85875 -1.64920 661 ft 8 kts 208°
2026-05-04 08:14 53.85889 -1.64989 662 ft 7 kts 336°
2026-05-04 08:16 53.86593 -1.66069 671 ft 146 kts 317°
2026-05-04 08:16 53.87442 -1.67392 1071 ft 172 kts 319°
2026-05-04 08:16 53.88380 -1.68799 1660 ft 195 kts 320°
2026-05-04 08:17 53.89324 -1.70526 2162 ft 196 kts 309°
2026-05-04 08:17 53.90099 -1.72419 2621 ft 197 kts 295°
2026-05-04 08:17 53.90432 -1.74683 2997 ft 203 kts 273°
2026-05-04 08:17 53.90191 -1.77175 3128 ft 223 kts 246°
2026-05-04 08:19 53.80000 -1.74001 6455 ft 278 kts 136°
2026-05-04 08:19 53.78567 -1.71776 7086 ft 281 kts 136°
2026-05-04 08:20 53.77107 -1.69511 7706 ft 285 kts 136°
2026-05-04 08:20 53.75635 -1.67227 8305 ft 288 kts 136°
2026-05-04 08:20 53.74156 -1.64936 8898 ft 291 kts 136°
2026-05-04 08:20 53.72647 -1.62601 9479 ft 295 kts 136°
2026-05-04 08:21 53.71131 -1.60258 10054 ft 298 kts 136°
2026-05-04 08:21 53.69592 -1.57880 10644 ft 301 kts 137°
2026-05-04 08:21 53.68042 -1.55488 11232 ft 303 kts 137°
2026-05-04 08:21 53.66420 -1.52985 11417 ft 321 kts 137°
2026-05-04 08:22 53.64725 -1.50375 11455 ft 343 kts 137°
2026-05-04 08:22 53.62893 -1.47556 11668 ft 358 kts 137°
2026-05-04 08:24 53.49571 -1.26959 15631 ft 381 kts 129°
2026-05-04 08:24 53.48313 -1.23071 16127 ft 384 kts 108°
2026-05-04 08:24 53.47358 -1.18868 16635 ft 387 kts 118°
2026-05-04 08:24 53.46059 -1.14959 17161 ft 390 kts 120°
2026-05-04 08:25 53.44702 -1.10976 17677 ft 393 kts 120°
2026-05-04 08:25 53.43330 -1.06932 18236 ft 395 kts 120°
2026-05-04 08:25 53.41973 -1.02930 18748 ft 397 kts 120°
2026-05-04 08:25 53.40590 -0.98855 19259 ft 400 kts 120°
2026-05-04 08:26 53.39196 -0.94749 19738 ft 403 kts 120°
2026-05-04 08:27 53.30091 -0.64782 22876 ft 419 kts 106°
2026-05-04 08:28 53.29237 -0.60082 23205 ft 423 kts 106°
2026-05-04 08:28 53.28371 -0.55361 23595 ft 426 kts 107°
2026-05-04 08:28 53.27490 -0.50641 24004 ft 428 kts 107°
2026-05-04 08:28 53.26587 -0.45843 24434 ft 430 kts 107°
2026-05-04 08:29 53.25678 -0.41050 24837 ft 431 kts 107°
2026-05-04 08:29 53.24764 -0.36249 25221 ft 434 kts 107°
2026-05-04 08:29 53.23854 -0.31467 25534 ft 437 kts 107°
2026-05-04 08:31 53.17334 0.02415 28616 ft 434 kts 107°
2026-05-04 08:33 53.10815 0.35719 31510 ft 420 kts 105°
2026-05-04 08:33 53.09893 0.40384 31866 ft 418 kts 105°
2026-05-04 08:35 53.03398 0.72976 33034 ft 424 kts 107°
2026-05-04 08:35 53.02461 0.77638 33003 ft 425 kts 108°
2026-05-04 08:35 53.00552 0.87085 32970 ft 435 kts 107°
2026-05-04 08:37 52.93253 1.20568 33015 ft 440 kts 109°
2026-05-04 08:38 52.91098 1.30059 33021 ft 436 kts 108°
2026-05-04 08:38 52.88947 1.39466 32998 ft 437 kts 109°
2026-05-04 08:40 52.81189 1.73096 32993 ft 454 kts 113°
2026-05-04 08:40 52.80064 1.77949 32992 ft 454 kts 113°
2026-05-04 08:41 52.77806 1.87640 33001 ft 454 kts 114°
2026-05-04 08:41 52.75520 1.97404 32992 ft 454 kts 114°
2026-05-04 08:42 52.73233 2.07122 32988 ft 455 kts 114°
2026-05-04 08:42 52.70940 2.16829 32988 ft 454 kts 113°
2026-05-04 08:43 52.68638 2.26527 32997 ft 453 kts 113°
2026-05-04 08:43 52.66348 2.36132 32998 ft 453 kts 113°
2026-05-04 08:44 52.64038 2.45778 33003 ft 453 kts 113°
2026-05-04 08:46 52.54680 2.84382 32985 ft 456 kts 118°
2026-05-04 08:46 52.51945 2.93702 32993 ft 455 kts 120°
2026-05-04 08:47 52.49219 3.02989 32996 ft 455 kts 120°
2026-05-04 08:47 52.46505 3.12299 32999 ft 454 kts 120°
2026-05-04 08:48 52.43786 3.21594 32997 ft 455 kts 120°
2026-05-04 08:48 52.41040 3.30945 32968 ft 455 kts 120°
2026-05-04 08:49 52.38306 3.40222 32979 ft 454 kts 120°
2026-05-04 08:50 52.28702 3.72537 32993 ft 453 kts 121°
2026-05-04 08:51 52.25986 3.81605 33000 ft 454 kts 121°
2026-05-04 08:51 52.23261 3.90653 33003 ft 456 kts 122°
2026-05-04 08:52 52.20517 3.99733 32984 ft 457 kts 122°
2026-05-04 08:52 52.18250 4.07211 32976 ft 455 kts 122°
2026-05-04 08:54 52.06217 4.46505 32972 ft 453 kts 122°
2026-05-04 08:55 52.03389 4.55650 32977 ft 454 kts 122°
2026-05-04 08:55 52.00523 4.64881 32978 ft 454 kts 122°